sat.trackr.live / text

‹ back to catalog

STARLINK-1452

NORAD 45669 · 2020-035N

PAYLOAD ACTIVE UNKNOWN

§ Identity

Operator
Country
US
Launch date
2020-06-04
Launch site
AFETR
Launch vehicle
Mass (kg)
RCS (m²)

Purposes: comms

External: N2YO · Heavens-Above · Gunter

§ Orbital elements

Epoch: 2026-09-20T04:46:19.636896Z

Period
91.63 min
Inclination
53.0180°
Eccentricity
0.0001116
Mean motion
15.71457612 rev/d
Perigee alt
354.0 km
Apogee alt
355.5 km
Semi-major
6,732.9 km
B*
3.9086e-4
RAAN
154.5934°
Arg perigee
12.8940°
Mean anomaly
347.2105°
Rev number
34,971

§ Raw data

STARLINK-14521 45669U 20035N   26263.19883839  .00050655  00000+0  39086-3 0  99972 45669  53.0180 154.5934 0001116  12.8940 347.2105 15.71457612349718

JSON: /api/v1/satellites/45669 · /tle

For live sub-satellite position, see the globe view (requires WebGL).

§ Visibility from observer

Set your observer location to see the next 7 days of passes ≥ 10°. The values pass through the URL so the page stays shareable.

No JS? Fill the form by hand. The geolocation button needs JavaScript.